Location: ??????
(38.1303°N, 24.0039°E)
Time: 11:59:34
(UTC+00:00)

Cosmos 1862 - Pass Details

Date: 20 June 2021
Orbit: 536 x 556 km, 82.5° (Epoch: 03 August)

Event Time Altitude Azimuth Distance (km) Brightness Sun altitude
Exits shadow 01:31:27 20° 189° (S) 1,312 4.8 -14.6°
Maximum altitude 01:34:11 85° 275° (W) 562 3.3 -14.2°
Drops below altitude 10° 01:38:16 10° 6° (N) 1,846 6.8 -13.6°
Sets 01:40:27 0° 7° (N) 2,746 7.8 -13.3°
